AO-07 1 07530U 74089B 20233.79932519 -.00000039 00000-0 38858-4 0 9997 2 07530 101.8053 203.1944 0011782 239.9463 182.3764 12.53644665 94290 UO-11 1 14781U 84021B 20233.78519042 .00000041 00000-0 11051-4 0 9999 2 14781 97.5902 242.5586 0008363 0.8591 359.2636 14.83185413962368 LO-19 1 20442U 90005G 20233.40271911 -.00000006 00000-0 14411-4 0 9993 2 20442 98.6958 180.8820 0011243 332.1305 27.9276 14.32958680597778 HUBBLE 1 20580U 90037B 20233.50489622 .00000348 00000-0 10155-4 0 9991 2 20580 28.4690 256.0165 0002942 63.4891 70.2416 15.09419185465748 MET-2/21 1 22782U 93055A 20233.00753295 .00000055 00000-0 36033-4 0 9993 2 22782 82.5508 183.1511 0023742 58.6568 10.8677 13.83827975362101 AO-27 1 22825U 93061C 20233.74080456 -.00000025 00000-0 84880-5 0 9993 2 22825 98.9251 237.8152 0008295 182.7400 177.3737 14.30090786403278 IO-26 1 22826U 93061D 20233.78209686 -.00000018 00000-0 11048-4 0 9993 2 22826 98.9191 237.7972 0009043 171.0546 189.0798 14.30426991403497 FO-29 1 24278U 96046B 20233.35074512 .00000009 00000-0 45819-4 0 9995 2 24278 98.5880 334.8325 0349870 209.2467 148.8678 13.53099405185771 NOAA-15 1 25338U 98030A 20233.35631408 .00000032 00000-0 31962-4 0 9991 2 25338 98.7142 258.0717 0011543 78.8303 281.4174 14.25986070158347 GO-32 1 25397U 98043D 20233.11879115 -.00000021 00000-0 10064-4 0 9992 2 25397 98.7307 174.1422 0000654 173.8002 186.3185 14.23688971148834 ISS 1 25544U 98067A 20233.87140200 -.00001366 00000-0 -16552-4 0 9993 2 25544 51.6458 28.3488 0001489 62.1567 91.4532 15.49172488242048 NO-44 1 26931U 01043C 20232.99931700 -.00000032 00000-0 19573-4 0 9991 2 26931 67.0531 338.4074 0006158 275.0912 84.9486 14.30584748986231 SO-50 1 27607U 02058C 20233.34331903 -.00000049 00000-0 13435-4 0 9997 2 27607 64.5550 179.0294 0040002 157.0185 203.2719 14.75652683950289 CO-55 1 27844U 03031E 20233.31099260 .00000031 00000-0 33716-4 0 9990 2 27844 98.6823 240.0821 0008924 226.0655 133.9787 14.22251743889216 CO-57 1 27848U 03031J 20233.00436748 .00000019 00000-0 28644-4 0 9996 2 27848 98.6889 240.3421 0008656 240.9010 119.1301 14.21836988889007 RS-22 1 27939U 03042A 20233.71127829 .00000189 00000-0 42407-4 0 9995 2 27939 98.1000 7.7087 0013691 145.8616 214.3476 14.66880055903439 NOAA-18 1 28654U 05018A 20233.76403881 .00000066 00000-0 60505-4 0 9998 2 28654 99.0389 290.7774 0014991 53.2333 307.0212 14.12533438786082 CO-58 1 28895U 05043F 20233.05445724 .00000072 00000-0 22676-4 0 9991 2 28895 98.0183 7.6584 0018166 81.4656 278.8604 14.63791430790149 Falconsat-3 1 30776U 07006E 20233.68995889 .00001991 00000-0 53298-4 0 9999 2 30776 35.4333 228.9608 0001878 33.1400 326.9444 15.38057746746731 CO-65 1 32785U 08021C 20233.73214435 .00000122 00000-0 18706-4 0 9996 2 32785 97.5771 218.9355 0011455 282.0901 77.9033 14.88501973667503 AAUSAT2 1 32788U 08021F 20233.70259441 .00000466 00000-0 47415-4 0 9992 2 32788 97.4928 235.3501 0011144 191.8296 168.2665 14.95122414669014 DO-64 1 32789U 08021G 20233.11014874 .00000862 00000-0 60086-4 0 9996 2 32789 97.4141 273.6747 0013766 97.5009 262.7784 15.07864023671507 CO-66 1 32791U 08021J 20233.01781423 .00000139 00000-0 19413-4 0 9994 2 32791 97.5440 224.3718 0011712 248.6637 111.3333 14.91092023667935 RS-30 1 32953U 08025A 20233.70314792 .00000037 00000-0 19437-3 0 9997 2 32953 82.5000 237.9436 0017896 274.2555 85.6481 12.43097772555610 PRISM 1 33493U 09002B 20232.81660921 -.00000146 00000-0 -70632-5 0 9991 2 33493 098.1473 175.7502 0014009 201.0894 158.9750 14.97106044629188 NOAA-19 1 33591U 09005A 20233.77239989 .00000007 00000-0 29353-4 0 9992 2 33591 99.1962 240.7947 0012991 254.5865 105.3870 14.12427836594470 TISAT-1 1 36799U 10035E 20233.44342965 .00000308 00000-0 36976-4 0 9996 2 36799 98.1994 46.1946 0013451 117.6766 242.5818 14.91404215548664 JUGNU 1 37839U 11058B 20233.13332917 .00000301 00000-0 18558-4 0 9999 2 37839 19.9604 256.5880 0019006 11.0701 38.0842 14.12685801457918 SRMSAT 1 37841U 11058D 20232.97051660 .00000331 00000-0 36719-4 0 9998 2 37841 19.9730 323.2190 0011666 221.5825 295.7756 14.10666988457241 AO-71 1 37854U 11061E 20233.28667605 .00001299 00000-0 72678-4 0 9991 2 37854 101.7052 357.4850 0157950 231.8454 126.8438 15.07398937481547 HRBE 1 37855U 11061F 20233.80505186 .00001030 00000-0 58470-4 0 9992 2 37855 101.7181 355.3975 0170501 243.8478 114.5110 15.06422820481361 HORYU-2 1 38340U 12025D 20233.41432068 .00000110 00000-0 23965-4 0 9997 2 38340 98.2758 288.4833 0011253 190.3811 169.7167 14.75879234444391 RS-40 1 38735U 12041C 20233.21958071 -.00000006 00000-0 -11812-3 0 9991 2 38735 82.4802 320.9051 0017190 26.5476 333.6480 12.42580192365779 BEESAT-3 1 39135U 13015F 20233.07047053 .00000568 00000-0 37096-4 0 9995 2 39135 64.8658 95.9436 0035059 232.4634 127.3305 15.18281573405261 BEESAT-2 1 39136U 13015G 20233.80260611 .00000617 00000-0 40080-4 0 9996 2 39136 64.8723 98.7749 0033939 272.7596 86.9646 15.17681062405277 ZACUBE-1 1 39417U 13066B 20232.92987683 .00000158 00000-0 25965-4 0 9996 2 39417 097.5674 227.4288 0060359 070.2690 290.5021 14.81304581364438 TRITON-1 1 39427U 13066M 20233.68496564 .00000095 00000-0 23370-4 0 9992 2 39427 97.7307 191.0667 0112356 232.2293 126.8694 14.68033081361270 GOMX-1 1 39430U 13066Q 20233.77327483 .00000113 00000-0 29786-4 0 9997 2 39430 97.7933 168.4219 0150848 342.5188 17.0871 14.59425347359181 LO-74 1 39440U 13066AA 20233.68769013 .00000129 00000-0 24803-4 0 9999 2 39440 97.6357 212.6570 0081194 130.8995 229.9285 14.76039430363253 AO-73 1 39444U 13066AE 20232.89098971 .00000201 00000-0 30822-4 0 9992 2 39444 097.5614 229.6567 0059395 062.5259 298.1976 14.82163845362763 SPROUT 1 39770U 14029E 20233.71206051 .00000257 00000-0 34186-4 0 9994 2 39770 97.9003 339.7327 0009989 112.9516 247.2743 14.87819723338610 DUCHIFAT-1 1 40021U 14033M 20233.77550402 .00000298 00000-0 36014-4 0 9995 2 40021 97.9427 165.4110 0014364 76.4106 283.8711 14.90951797335471 NANOSATCBR1 1 40024U 14033Q 20233.29719345 .00000249 00000-0 31674-4 0 9991 2 40024 97.9267 161.1013 0013674 82.1993 278.0777 14.90114499335267 DTUSAT-2 1 40030U 14033W 20233.26997983 .00000191 00000-0 26386-4 0 9991 2 40030 97.9009 154.8973 0013379 85.5939 274.6806 14.88745260335012 EO-80 1 40032U 14033Y 20233.76153430 .00000149 00000-0 21914-4 0 9994 2 40032 97.9016 155.3905 0013336 85.0231 275.2508 14.88695460335074 ANTELSAT 1 40034U 14033AA 20233.06502717 .00000140 00000-0 27969-4 0 9992 2 40034 97.7081 85.6895 0059179 151.8545 208.5885 14.74285161331783 VELOX-1 1 40057U 14034E 20233.88781954 .00000158 00000-0 29671-4 0 9991 2 40057 98.2886 12.6507 0009722 303.2739 56.7543 14.77908657331154 DAURIA DX 1 1 40071U 14037C 20233.81999794 .00000080 00000-0 17775-4 0 9992 2 40071 98.4627 55.7891 0007322 295.0658 64.9797 14.81383901330785 HODOYOSHI-1 1 40299U 14070B 20233.86801993 .00000322 00000-0 16118-4 0 9998 2 40299 97.3200 309.1024 0012323 335.8781 135.7022 15.24135833321621 CHUBUSAT-1 1 40300U 14070C 20233.82684726 .00000261 00000-0 14165-4 0 9992 2 40300 97.2818 301.0486 0020002 350.5573 145.7813 15.22583086321306 QSAT-EOS 1 40301U 14070D 20233.87363255 .00001004 00000-0 40224-4 0 9990 2 40301 97.2898 306.8390 0024008 323.1804 148.0873 15.27122435321769 FIREBIRD FU3 1 40377U 15003B 20233.76925709 .00002190 00000-0 86210-4 0 9998 2 40377 99.0907 307.1257 0124296 99.2876 262.2435 15.20286972307081 FIREBIRD FU4 1 40378U 15003C 20233.75280095 .00002200 00000-0 86490-4 0 9992 2 40378 99.0909 307.2089 0124466 99.2090 262.3243 15.20305278307084 GRIFEX 1 40379U 15003D 20233.74732537 .00001524 00000-0 66772-4 0 9994 2 40379 99.0972 298.7437 0133403 125.2572 236.1224 15.16562074306599 NO-84 1 40654U 15025D 20232.37575780 .00005181 00000-0 63240-4 0 101 2 40654 54.9878 10.3365 0112898 353.5656 6.3922 15.55244314178813 DEORBITSAIL 1 40719U 15032E 20233.72318321 .00000268 00000-0 45063-4 0 9997 2 40719 97.8618 120.7571 0016739 5.7132 354.4266 14.77048012275580 NUDT-PHONESAT 1 40900U 15049B 20233.86220087 .00001464 00000-0 62656-4 0 9999 2 40900 97.4300 244.2630 0013987 113.9484 6.9724 15.24324687273009 XW-2A 1 40903U 15049E 20233.90960139 .00001471 00000-0 34889-4 0 9991 2 40903 97.2827 282.8948 0013951 35.8407 136.9516 15.43302469276418 XW-2C 1 40906U 15049H 20233.92167069 .00000506 00000-0 29649-4 0 9993 2 40906 97.4778 234.3260 0015430 144.6559 277.3295 15.16140453272028 XW-2D 1 40907U 15049J 20233.90550318 .00000374 00000-0 22688-4 0 9994 2 40907 97.4762 234.0257 0014883 141.8807 281.0533 15.16380747272042 LILACSAT-2 1 40908U 15049K 20233.87850630 .00000182 00000-0 13605-4 0 9997 2 40908 97.4919 232.2635 0016343 153.6496 290.5936 15.14081419271745 XW-2E 1 40909U 15049L 20233.92055391 .00000678 00000-0 36080-4 0 9997 2 40909 97.4640 237.6259 0014490 132.6147 290.2674 15.18539805272310 XW-2F 1 40910U 15049M 20233.83679606 .00000511 00000-0 28354-4 0 9991 2 40910 97.4685 236.6301 0015769 132.3769 349.3399 15.18046861272107 XW-2B 1 40911U 15049N 20233.83060959 .00000249 00000-0 16261-4 0 9999 2 40911 97.4773 234.6510 0014735 142.6753 301.9219 15.16304188271926 DCBB 1 40912U 15049P 20233.91667603 .00000748 00000-0 37354-4 0 9998 2 40912 97.4482 240.9195 0016269 111.1505 314.0075 15.20455992272519 TW-1C 1 40926U 15051B 20233.87494216 .00020232 00000-0 18120-3 0 9998 2 40926 97.0786 286.1580 0006010 182.5701 292.4714 15.68342229277110 TW-1A 1 40928U 15051D 20233.88015339 .00002143 00000-0 50597-4 0 9992 2 40928 97.1053 260.1401 0009054 320.6300 163.1482 15.42922184275306 IO-86 1 40931U 15052B 20231.48763971 .00000532 00000-0 -14993-4 0 9994 2 40931 5.9987 253.0694 0012758 75.5083 284.6459 14.76638621264449 LQSat 1 40958U 15057A 20233.71392122 -.00000014 00000-0 53664-5 0 9996 2 40958 97.8479 294.9791 0016913 306.2192 53.7452 14.73127408261963 ATHENOXAT-1 1 41168U 15077C 20233.58449626 .00001623 00000-0 48961-4 0 9998 2 41168 14.9887 310.8498 0011308 301.6095 58.3123 15.14491097259086 ChubuSat-2 1 41338U 16012B 20232.90594446 .00000250 00000-0 12703-4 0 9993 2 41338 31.0036 303.0782 0013796 24.9704 335.1597 15.00317281247272 ChubuSat-3 1 41339U 16012C 20233.62544059 .00000217 00000-0 10105-4 0 9996 2 41339 31.0132 296.0662 0013552 39.8370 320.3259 15.00480070247382 Horyu-4 1 41340U 16012D 20232.85163969 .00000350 00000-0 19714-4 0 9992 2 41340 031.0051 288.0369 0013930 057.7470 302.4514 15.01537192247417 OUFTI-1 1 41458U 16025C 20233.36016837 .00000370 00000-0 22791-4 0 9995 2 41458 98.1106 347.3401 0162812 355.0284 4.9317 15.07031453237104 e-st@r-II 1 41459U 16025D 20233.82311541 .00000437 00000-0 26294-4 0 9993 2 41459 98.1107 347.1895 0164390 355.6875 4.2906 15.06583659237135 AAUSAT4 1 41460U 16025E 20233.79404911 .00001102 00000-0 57578-4 0 9994 2 41460 98.1076 349.7191 0152693 343.6123 16.0238 15.08953347237344 LO-87 1 41557U 16033B 20233.74948603 .00000958 00000-0 37589-4 0 9994 2 41557 97.4036 323.5610 0012523 214.4341 145.6088 15.28146692235595 NuSat2 1 41558U 16033C 20233.76202435 .00001071 00000-0 39274-4 0 9993 2 41558 97.4097 326.1191 0011649 210.2193 149.8377 15.30146147235723 Lapan A3 1 41603U 16040E 20233.86614712 .00000114 00000-0 84169-5 0 9999 2 41603 97.3039 285.3743 0013120 344.1006 131.0362 15.19861144230926 Swayam 1 41607U 16040J 20233.13924695 .00001100 00000-0 47705-4 0 9997 2 41607 97.3127 290.9955 0011994 329.0248 31.0281 15.24394346231125 Pratham 1 41783U 16059A 20232.87059647 .00000033 00000-0 15529-4 0 9991 2 41783 098.0114 286.5295 0034848 115.6706 244.8103 14.63069058208158 AlSat 1N 1 41789U 16059G 20233.72157096 .00000024 00000-0 13332-4 0 9999 2 41789 98.0151 290.3255 0029650 100.2196 260.2351 14.64336025208432 ScatSat 1 41790U 16059H 20233.67003449 -.00000004 00000-0 98938-5 0 9992 2 41790 98.1562 272.0291 0007012 83.0786 277.1206 14.50925477206534 TY-1 1 41844U 16066D 20233.87866992 .00000583 00000-0 26220-4 0 9997 2 41844 97.4024 241.3276 0016444 113.9821 4.9903 15.24940605210080 Pegasus-1 1 41846U 16066F 20233.10520595 .00000127 00000-0 29066-4 0 9996 2 41846 98.6566 283.8061 0367447 43.8026 319.1689 14.37804402198117 CAS-2T 1 41847U 16066G 20232.87079465 .00000026 00000-0 13941-4 0 9998 2 41847 098.6489 284.0039 0366300 040.0996 322.6622 14.38085408198532 EO-88 1 42017U 17008BX 20233.13107406 .00001209 00000-0 48823-4 0 9993 2 42017 97.3557 299.7554 0007942 96.3569 263.8574 15.26653283195262 CAS-4B 1 42759U 17034B 20233.86628024 .00000039 00000-0 15849-4 0 9991 2 42759 43.0202 33.1400 0009703 71.3792 77.9324 15.09863381175705 CAS-4A 1 42761U 17034D 20233.87388292 -.00000016 00000-0 12465-4 0 9992 2 42761 43.0201 32.3551 0010089 73.0426 79.0350 15.09941745175700 UCLSat 1 42765U 17036A 20233.38913678 .00000936 00000-0 41863-4 0 9990 2 42765 97.2958 285.8993 0012010 153.1700 207.0161 15.23647190175728 NIUSat 1 42766U 17036B 20233.71169478 .00000700 00000-0 33714-4 0 9994 2 42766 97.2952 283.5071 0016310 148.9491 211.2713 15.21817280175469 LituanicaSAT 2 1 42768U 17036D 20232.88207623 .00001650 00000-0 70218-4 0 9993 2 42768 097.3016 285.4817 0015594 146.8511 213.3707 15.24277584175506 Aalto 1 1 42775U 17036L 20232.83597186 .00000615 00000-0 29908-4 0 9992 2 42775 097.2932 282.9975 0014637 150.6829 209.5231 15.21922221175319 URSA MAIOR 1 42776U 17036M 20233.08048391 .00000677 00000-0 32450-4 0 9994 2 42776 97.2944 283.5469 0014475 149.5011 210.7070 15.22112711175364 Max Valier Sat 1 42778U 17036P 20233.08724796 .00000694 00000-0 32624-4 0 9998 2 42778 97.2999 284.9482 0013046 151.4886 208.7067 15.22715292175413 Pegasus 1 42784U 17036V 20232.90205035 .00000894 00000-0 40470-4 0 9995 2 42784 097.2963 285.0894 0012502 156.2193 203.9625 15.23330607175433 NUDATSat 1 42787U 17036Y 20233.88784119 .00001475 00000-0 62411-4 0 9996 2 42787 97.3008 287.5956 0010921 146.6827 213.5103 15.24702086175515 SUCHAI 1 1 42788U 17036Z 20232.83730359 .00001077 00000-0 47407-4 0 9994 2 42788 097.2972 285.6746 0012088 154.3399 205.8440 15.23902282175536 SKCUBE 1 42789U 17036AA 20232.89013875 .00000993 00000-0 44144-4 0 9999 2 42789 097.2965 285.5587 0011983 154.4957 205.6874 15.23735009175456 VZLUSAT 1 1 42790U 17036AB 20232.89301951 .00001357 00000-0 57642-4 0 9998 2 42790 097.2991 286.6200 0011569 151.7335 208.4533 15.24681446175517 VENTA 1 1 42791U 17036AC 20232.73364442 .00000939 00000-0 41908-4 0 9999 2 42791 097.2964 285.4454 0011592 155.3044 204.8751 15.23712583175427 Robusta 1B 1 42792U 17036AD 20232.90163974 .00001066 00000-0 46903-4 0 9998 2 42792 097.2968 285.8413 0011548 154.4376 205.7435 15.23930669175482 D-SAT 1 42794U 17036AF 20233.72187275 .00000114 00000-0 15094-4 0 9991 2 42794 97.4899 263.1847 0126982 149.8739 210.9864 14.91305482172270 TechnoSat 1 42829U 17042E 20233.70455461 .00000027 00000-0 80048-5 0 9995 2 42829 97.5107 112.4368 0015748 72.5109 287.7829 14.91121793168860 QIKCOM-1 1 42983U 98067NF 20233.74267892 .00003514 00000-0 45391-4 0 9990 2 42983 51.6398 341.3209 0003304 306.2700 53.7988 15.62014076160335 AO-91 1 43017U 17073E 20233.73002248 .00000190 00000-0 20476-4 0 9992 2 43017 97.7181 143.4822 0256198 200.6259 158.4464 14.78993852148662 EcAMSat 1 43019U 98067NG 20233.55004670 .00007204 00000-0 71080-4 0 9997 2 43019 51.6415 325.8713 0003316 299.3582 60.7083 15.67158562242841 PICSAT 1 43132U 18004X 20233.77107987 .00001021 00000-0 44370-4 0 9998 2 43132 97.4436 304.7104 0009538 177.4776 182.6512 15.24550860144854 AO-92 1 43137U 18004AC 20232.83769963 .00000796 00000-0 35579-4 0 9996 2 43137 097.4422 303.5609 0008975 182.5623 177.5570 15.24226266144704 TianYi 2 1 43155U 18008A 20233.88826601 .00000182 00000-0 14408-4 0 9996 2 43155 97.4422 301.3255 0016056 288.5365 182.4549 15.11705735142658 Zhou Enlai 1 43156U 18008B 20233.87402473 .00000791 00000-0 50707-4 0 9991 2 43156 97.4471 301.1560 0013168 287.6821 196.4220 15.11262837142605 TianYi 6 1 43158U 18008D 20233.78170527 .00000385 00000-0 26966-4 0 9994 2 43158 97.4417 300.0434 0012404 287.4302 209.3012 15.10791448142538 S-Net G 1 43186U 18014G 20233.28993083 .00000626 00000-0 59620-4 0 9998 2 43186 97.6886 140.0782 0011411 19.5765 340.5893 14.96834645139242 S-Net H 1 43187U 18014H 20232.88866911 .00000594 00000-0 56799-4 0 9991 2 43187 097.6883 139.6603 0011429 020.6904 339.4778 14.96833797139182 S-Net J 1 43188U 18014J 20233.02224351 .00000596 00000-0 56974-4 0 9992 2 43188 97.6887 139.8237 0011422 20.3946 339.7730 14.96833728139206 S-Net K 1 43189U 18014K 20233.02269246 .00000612 00000-0 58397-4 0 9995 2 43189 97.6884 139.7870 0011422 20.3503 339.8172 14.96833297137755 FMN 1 1 43192U 18015A 20233.87029877 .00001493 00000-0 61144-4 0 9999 2 43192 97.4509 3.0849 0014613 218.1165 259.6048 15.25814933141728 Shaonian Xing 1 43199U 18015H 20233.86532554 .00001083 00000-0 44967-4 0 9995 2 43199 97.4296 1.1811 0015457 228.7418 287.6649 15.25919930141788 UBAKUSAT 1 43467U 98067NQ 20233.66995087 .00028992 00000-0 16369-3 0 9992 2 43467 51.6351 310.4785 0002647 347.7869 12.3068 15.78894529130246 EnduroSat One 1 43551U 98067NZ 20233.61673666 .00072674 00000-0 24611-3 0 9992 2 43551 51.6305 303.9769 0006731 359.2357 0.8637 15.89220964120551 EQUISat 1 43552U 98067PA 20233.40234257 .00029360 00000-0 17412-3 0 9994 2 43552 51.6321 319.2979 0005553 350.6627 9.4269 15.77772741120298 UiTMSat 1 1 43589U 98067PD 20232.96750352 .00046745 00000-0 22530-3 0 9996 2 43589 51.6343 317.6866 0005424 0.8312 359.2698 15.82104290116012 Maya 1 1 43590U 98067PE 20232.96026647 .00043844 00000-0 21146-3 0 9990 2 43590 51.6290 317.5990 0005362 356.6628 3.4338 15.82119129115942 Bhutan 1 1 43591U 98067PF 20232.48305142 .00049794 00000-0 23745-3 0 9995 2 43591 51.6351 319.7861 0005559 358.6185 1.4801 15.82305048115872 SiriusSat 1 1 43595U 98067PG 20233.42045690 .00033496 00000-0 19012-3 0 9997 2 43595 51.6280 321.4817 0003610 344.8605 15.2287 15.78693102115112 SiriusSat 2 1 43596U 98067PH 20233.42333043 .00033202 00000-0 18935-3 0 9998 2 43596 51.6275 322.3260 0003704 342.8909 17.1967 15.78591216115106 Tanusha-3 1 43597U 98067PJ 20233.68082544 .00268543 42855-4 42212-3 0 9995 2 43597 51.6220 299.5713 0010098 3.4421 356.6658 16.03318923115422 SurfSat 1 43614U 18070B 20233.11468368 .00002565 00000-0 65350-4 0 9992 2 43614 93.0252 180.9190 0018146 91.1158 269.2176 15.39458251108278 CP-7 DAVE 1 43615U 18070C 20233.02238219 .00002432 00000-0 62302-4 0 9990 2 43615 93.0255 180.8673 0018295 91.0234 269.3117 15.39297185108257 ELFIN-B 1 43616U 18070D 20233.39456187 .00003507 00000-0 85498-4 0 9992 2 43616 93.0214 180.9857 0018709 90.6685 269.6714 15.40764829108367 ELFIN-A 1 43617U 18070E 20233.80929959 .00003856 00000-0 93343-4 0 9996 2 43617 93.0268 181.7236 0018109 86.7251 273.6075 15.40988340108435 STARS-Me Mother 1 43640U 98067PQ 20233.02934458 .00012777 00000-0 12145-3 0 9992 2 43640 51.6358 345.3765 0003666 285.6852 74.3740 15.67259564106694 CubeBel 1 1 43666U 18083E 20233.89535971 .00000618 00000-0 33315-4 0 9996 2 43666 97.4858 259.7164 0016176 132.1587 350.3590 15.18364368100393 Changshagaoxin 1 43669U 18083H 20233.77701636 .00000587 00000-0 32702-4 0 9993 2 43669 97.4745 257.5950 0012243 125.4311 234.8067 15.17374175100280 Ten-Koh 1 43677U 18084G 20232.87142009 .00000164 00000-0 22767-4 0 9997 2 43677 097.8893 349.8045 0014911 312.7918 047.2045 14.90306839098386 PO-101 1 43678U 18084H 20233.67135098 -.00000346 00000-0 -28725-4 0 9991 2 43678 97.8910 352.0969 0009332 332.6443 27.4286 14.91641816 98591 IRVINE 01 1 43693U 18088D 20232.89691761 .00002121 00000-0 87742-4 0 9994 2 43693 085.0345 034.9996 0019654 061.3523 298.9693 15.23115360098502 QO-100 1 43700U 18090A 20233.73424199 .00000131 00000-0 00000 0 0 9995 2 43700 0.0111 116.9434 0001805 60.0535 82.6316 1.00272057 6590 Reaktor Hello World 1 43743U 18096AA 20232.84206398 .00000884 00000-0 35524-4 0 9997 2 43743 097.4180 306.3894 0016128 263.2995 096.6409 15.27532384096075 MinXSS-2 1 43758U 18099A 20232.75320764 .00000661 00000-0 64468-4 0 9992 2 43758 97.7032 303.6509 0014907 343.8517 16.2227 14.95709292 93410 AO-95 1 43770U 18099N 20233.76214105 .00000205 00000-0 23910-4 0 9990 2 43770 97.7023 304.0103 0014140 348.7747 11.3156 14.95026485 93522 RANGE-B 1 43772U 18099Q 20233.77404566 -.00000060 00000-0 -20803-6 0 9996 2 43772 97.7092 304.6057 0013426 335.3958 24.6620 14.95224453 93524 RANGE-A 1 43773U 18099R 20233.75393737 .00000397 00000-0 41520-4 0 9990 2 43773 97.6964 303.5934 0012757 336.0197 24.0428 14.94995226 93514 MOVE-II 1 43780U 18099Y 20232.75630821 .00000655 00000-0 64345-4 0 9992 2 43780 97.7030 303.2764 0013010 350.3458 9.7511 14.95456197 93374 SNUSat 2 1 43782U 18099AA 20233.77886300 -.00000230 00000-0 -15694-4 0 9996 2 43782 97.7017 304.2617 0012021 335.1600 24.9041 14.95289345 93534 SnugLite 1 43784U 18099AC 20233.74298984 .00000605 00000-0 59886-4 0 9995 2 43784 97.6983 304.0344 0014389 342.6957 17.3772 14.95390634 93541 ITASat 1 1 43786U 18099AE 20233.74460396 .00000570 00000-0 56771-4 0 9996 2 43786 97.7037 304.4585 0014485 341.7966 18.2734 14.95358410 93546 EAGLET 1 1 43790U 18099AJ 20233.11819679 -.00000193 00000-0 -12117-4 0 9993 2 43790 97.7026 304.1262 0013161 348.5525 11.5395 14.95737435 93169 ESEO 1 43792U 18099AL 20232.93279854 .00000147 00000-0 18440-4 0 9991 2 43792 97.6997 303.7355 0012790 346.2706 13.8165 14.95612689 93194 CSIM 1 43793U 18099AM 20233.09119558 .00000674 00000-0 65014-4 0 9998 2 43793 97.7002 303.9158 0012212 343.9656 16.1177 14.96109728 93200 Astrocast 0.1 1 43798U 18099AS 20233.10089189 -.00000050 00000-0 69561-6 0 9993 2 43798 97.7027 304.2209 0011539 328.8714 31.1823 14.95898096 93466 JO-97 1 43803U 18099AX 20233.41686536 .00000650 00000-0 63714-4 0 9990 2 43803 97.7000 303.9404 0014456 343.4153 16.6594 14.95543223 93493 Suomi 100 1 43804U 18099AY 20233.75274663 .00000590 00000-0 58337-4 0 9990 2 43804 97.6998 304.2562 0014529 342.4557 17.6160 14.95530953 93559 Al Farabi 2 1 43805U 18099AZ 20233.78850093 .00000030 00000-0 78997-5 0 9995 2 43805 97.7002 304.3937 0014623 341.3457 18.7226 14.95656514 93564 PWSat 2 1 43814U 18099BJ 20233.78685149 .00024964 00000-0 13266-2 0 9990 2 43814 97.7932 315.9630 0002910 261.5859 98.5042 15.15279417 93455 CHOMPTT 1 43855U 18104G 20232.77463276 .00000799 00000-0 32045-4 0 9993 2 43855 85.0390 133.3263 0017573 171.0983 189.0575 15.23063876 93160 ISAT 1 43879U 18111D 20233.76473784 .00000695 00000-0 66572-4 0 9999 2 43879 97.6968 140.1468 0014214 35.4149 324.8014 14.96282474 88094 UWE-4 1 43880U 18111E 20232.99905575 -.00000027 00000-0 26931-5 0 9999 2 43880 97.6976 139.6975 0013236 38.0687 322.1468 14.96526147 87990 Sparrow 1 43881U 18111F 20233.71502957 -.00000164 00000-0 -92859-5 0 9993 2 43881 97.6988 140.4833 0013596 34.0625 326.1467 14.96573202 88105 Lume 1 1 43908U 18111AJ 20233.74199217 .00000763 00000-0 33106-4 0 9999 2 43908 97.2585 131.7657 0019428 276.8637 83.0391 15.25147666 91822 FO-98 1 43933U 19003B 20232.89382211 .00000560 00000-0 27233-4 0 9990 2 43933 097.2250 280.1864 0018427 023.8390 336.3696 15.22190741088188 FO-99 1 43937U 19003F 20233.22841636 .00000954 00000-0 41319-4 0 9991 2 43937 97.2214 281.9325 0023929 3.6050 356.5355 15.24518713 88355 Delphini 1 1 44030U 98067PW 20233.03165062 .00019060 00000-0 17035-3 0 9999 2 44030 51.6350 351.3910 0004050 331.9615 28.1163 15.68410626 88480 MYSat 1 1 44045U 18092F 20233.76338320 .00001883 00000-0 61959-4 0 9993 2 44045 51.6392 89.9640 0011089 193.6230 166.4456 15.36945053 85178 AstroCast 0.2 1 44083U 19018F 20233.73492500 .00000485 00000-0 24491-4 0 9999 2 44083 97.4162 293.8760 0011787 311.8701 48.1528 15.21681624 77154 AISTechSat 3 1 44103U 19018AB 20233.87444321 .00000578 00000-0 27339-4 0 9992 2 44103 97.4031 294.2230 0012637 327.4234 93.5160 15.23252230 77243 AISat 1 1 44104U 19018AC 20233.08747812 .00000546 00000-0 19962-4 0 9995 2 44104 97.4600 303.1497 0057622 348.5692 11.4236 15.31154564 77542 Raavana-1 1 44329U 98067QE 20232.67743711 .00010654 00000-0 14055-3 0 9991 2 44329 51.6404 16.9556 0005267 239.9643 120.0828 15.58986421 66868 Uguisu 1 44330U 98067QF 20233.65524903 .00009795 00000-0 13014-3 0 9990 2 44330 51.6384 12.2163 0005189 243.8954 116.1505 15.58904547 66993 NepaliSat-1 1 44331U 98067QG 20232.86145501 .00010092 00000-0 13340-3 0 9990 2 44331 051.6381 015.9176 0005236 244.0902 115.9551 15.59004144066885 Prox-1 1 44339U 19036A 20233.82483809 .00000811 00000-0 14238-3 0 9995 2 44339 24.0006 66.8188 0010752 137.0084 223.1249 14.53075503 61500 Oculus-ASR 1 44348U 19036K 20232.94198025 .00009528 00000-0 13844-3 0 9996 2 44348 28.5192 326.6243 0362891 265.5054 90.4003 15.03574107 63361 Armadillo 1 44352U 19036P 20232.56884967 .00013752 00000-0 19895-3 0 9992 2 44352 28.5345 323.0665 0348754 270.3582 85.7060 15.06773326 63319 NO-104 1 44354U 19036R 20232.56492073 .00010271 00000-0 14695-3 0 9993 2 44354 28.5335 325.8451 0359586 265.5129 90.4307 15.04631551 63320 NO-103 1 44355U 19036S 20233.45316001 .00018763 00000-0 25585-3 0 9993 2 44355 28.5324 307.6651 0334193 295.0958 61.5310 15.11085428 63589 CP9 1 44360U 19036X 20232.48083350 .00029254 -60242-5 31652-3 0 9998 2 44360 028.5138 294.8868 0311187 316.8903 040.7709 15.19529706063519 Move-IIb 1 44398U 19038N 20233.79654253 .00000835 00000-0 51564-4 0 9991 2 44398 97.5409 194.2293 0023390 266.1389 93.7168 15.12444156 62304 SONATE 1 44400U 19038Q 20233.78165088 .00000368 00000-0 25152-4 0 9992 2 44400 97.5451 194.2249 0023504 264.6016 95.2532 15.12010899 62296 BeeSat 9 1 44412U 19038AC 20233.44990545 .00000663 00000-0 41820-4 0 9990 2 44412 97.5435 194.0045 0020958 271.6391 88.2439 15.12387540 61946 JAISAT-1 1 44419U 19038F 20233.78046603 .00000651 00000-0 40633-4 0 9999 2 44419 97.5437 194.6443 0019818 269.3321 90.5639 15.12871586 62322 LightSail-2 1 44420U 19036AC 20232.85966605 .00004426 00000-0 93493-3 0 9994 2 44420 24.0068 67.0099 0011178 133.4264 226.7159 14.56174399 59564 Taurus 1 1 44530U 19059C 20233.76026024 .00001123 00000-0 33028-3 0 9993 2 44530 98.5679 315.4625 0014098 332.8347 27.2085 14.45593480 49639 MO-106 1 44830U 19084G 20233.77390264 .00085705 45361-5 32608-3 0 9990 2 44830 96.9616 103.8571 0016086 352.2400 7.8621 15.87441779 40629 TRSI-Sat 1 44831U 19084H 20233.10429156 .00088717 46884-5 35020-3 0 9999 2 44831 96.9608 103.1462 0016847 355.3389 4.7723 15.86663047 40529 MO-105 1 44832U 19084J 20233.68610640 .00117974 70067-5 37952-3 0 9997 2 44832 96.9610 104.1378 0013359 350.9489 9.1543 15.90825359 40639 Duchifat 3 1 44854U 19089C 20233.83711653 .00000142 00000-0 17898-4 0 9990 2 44854 36.9657 77.8449 0008519 234.3039 125.6926 14.99104557 37960 OPS-SAT 1 44878U 19092F 20233.41404382 .00000794 00000-0 45212-4 0 9996 2 44878 97.4704 55.6081 0015312 130.6617 229.5949 15.15582512 37224 TO-108 1 44881U 19093C 20233.76300803 -.00000050 00000-0 40962-6 0 9997 2 44881 97.9555 309.3697 0014673 183.4694 176.6428 14.81416762 36216 FloripaSat 1 1 44885U 19093G 20233.73373077 .00000140 00000-0 24361-4 0 9993 2 44885 97.9545 309.5456 0014269 194.2140 165.8675 14.82062460 36229 RS-44 1 44909U 19096E 20232.76518415 .00000040 00000-0 10716-3 0 9999 2 44909 082.5233 313.2495 0218446 078.5986 283.9565 12.79707609030285 SwampSat-2 1 45115U 19071E 20232.97610731 .00009686 00000-0 27962-3 0 9995 2 45115 51.6418 54.6127 0011646 288.6125 71.3593 15.36277959 30889 HO-107 1 45119U 19071J 20233.77660608 .00001364 00000-0 52562-4 0 9996 2 45119 51.6444 52.4274 0011591 286.5607 73.4102 15.33750328 30996 Phoenix 1 45258U 98067RB 20233.03714815 .00004075 00000-0 75830-4 0 9996 2 45258 51.6420 30.6024 0005776 214.5742 145.4872 15.51319713 28343 AztechSat-1 1 45261U 98067RE 20233.78722958 .00007821 00000-0 13182-3 0 9992 2 45261 51.6421 25.8706 0007308 237.3718 122.6567 15.52680465 28490 QARMAN 1 45263U 98067RG 20233.46571297 .00006590 00000-0 11546-3 0 9991 2 45263 51.6421 28.2203 0006845 231.8049 128.2325 15.51888583 28474 Quetzal 1 1 45598U 98067RL 20232.73780486 .00006170 00000-0 11215-3 0 9990 2 45598 51.6430 33.1087 0002635 327.2828 32.7998 15.50973964 17614 BY70-2 1 45857U 20042B 20233.77688401 .00000648 00000-0 10093-3 0 9992 2 45857 98.0112 306.4014 0012915 101.7613 258.5049 14.76261069 7188 /EX